Location: Unspecified
(0.0000°N, 0.0000°E)
Time: 02:23:44
(UTC+00:00)

Vanguard 2 Rocket - All Passes

Search period start: 05 August 2015 00:00
Search period end: 15 August 2015 00:00
Orbit: 555 x 3330 km, 32.9° (Epoch: 03 August)

Date Brightness Start Highest point End Pass type
(mag) Time Alt. Az. Time Alt. Az. Time Alt. Az.
05 Aug - 02:15:37 10° SW 02:27:44 19° S 02:40:22 10° SE visible
05 Aug - 04:38:36 10° SSW 04:52:17 22° S 05:04:12 10° ESE visible
05 Aug - 06:57:28 10° SW 07:13:37 42° SSE 07:23:54 10° E daylight
05 Aug - 09:16:29 10° WSW 09:30:17 74° NW 09:37:45 10° NE daylight
05 Aug - 11:40:08 10° WNW 11:43:48 13° NW 11:46:24 10° NNW daylight
05 Aug - 18:29:32 10° N 18:32:44 15° NE 18:37:15 10° ENE visible
05 Aug - 20:38:49 10° NW 20:46:12 82° NE 20:59:57 10° ESE visible
05 Aug - 22:52:58 10° W 23:03:06 38° SSW 23:18:43 10° SE visible
06 Aug - 01:13:03 10° SW 01:24:37 21° S 01:37:51 10° SSE visible
06 Aug - 03:36:22 10° SSW 03:49:14 20° S 04:01:35 10° SE visible
06 Aug - 05:55:47 10° SW 06:12:04 34° SSE 06:23:48 10° E daylight
06 Aug - 08:14:23 10° SW 08:30:30 79° SSE 08:39:23 10° ENE daylight
06 Aug - 10:35:55 10° W 10:44:48 27° NW 10:50:21 10° NNE daylight
06 Aug - 19:40:51 10° NW 19:46:59 52° NE 19:57:53 10° ESE visible
06 Aug - 21:53:29 10° W 22:02:12 48° SSW 22:17:03 10° SE visible
07 Aug - 00:11:18 10° WSW 00:22:01 23° SSW 00:35:34 10° SSE visible
07 Aug - 02:34:03 10° SW 02:45:53 19° S 02:58:17 10° SE visible
07 Aug - 04:54:09 10° SSW 05:09:52 28° SSE 05:22:46 10° ESE visible
07 Aug - 07:12:28 10° SW 07:30:01 60° SSE 07:40:29 10° ENE daylight
07 Aug - 09:32:48 10° WSW 09:45:41 47° NW 09:52:57 10° NNE daylight
07 Aug - 18:43:26 10° NNW 18:48:10 28° NE 18:55:35 10° E visible
07 Aug - 20:54:36 10° WNW 21:01:59 64° SSW 21:15:27 10° SE visible
07 Aug - 23:10:27 10° WSW 23:20:04 27° SSW 23:33:34 10° SSE night (unlit)
08 Aug - 01:31:52 10° SW 01:42:37 18° S 01:54:41 10° SE visible
08 Aug - 03:52:36 10° SSW 04:07:06 24° SSE 04:20:38 10° ESE visible
08 Aug - 06:10:44 10° SW 06:28:50 47° SSE 06:40:55 10° E daylight
08 Aug - 08:30:06 10° WSW 08:46:08 71° NW 08:54:58 10° NE daylight
08 Aug - 10:54:37 10° WNW 11:00:20 15° NW 11:04:15 10° N daylight
08 Aug - 17:47:17 10° NNE 17:49:26 13° NE 17:52:19 10° ENE daylight
08 Aug - 19:56:13 10° NW 20:02:28 88° NE 20:13:55 10° SE visible
08 Aug - 22:10:23 10° W 22:18:49 32° SSW 22:31:52 10° SE visible
09 Aug - 00:30:01 10° SW 00:39:43 19° S 00:51:21 10° SSE visible
09 Aug - 02:51:11 10° SSW 03:03:58 21° S 03:17:20 10° SE visible
09 Aug - 05:09:15 10° SW 05:26:58 38° SSE 05:40:33 10° E visible
09 Aug - 07:27:46 10° SW 07:45:58 85° SE 07:56:28 10° ENE daylight
09 Aug - 09:50:05 10° W 10:01:01 29° NW 10:07:43 10° NNE daylight
09 Aug - 18:58:16 10° NW 19:03:29 52° NE 19:12:25 10° ESE visible
09 Aug - 21:10:59 10° W 21:18:15 40° SSW 21:30:27 10° SE visible
09 Aug - 23:28:44 10° SW 23:37:26 20° S 23:48:37 10° SSE night (unlit)
10 Aug - 01:49:51 10° SSW 02:00:43 18° S 02:13:03 10° SE visible
10 Aug - 04:08:02 10° SSW 04:24:32 31° SSE 04:39:10 10° E visible
10 Aug - 06:25:48 10° SW 06:45:06 66° SSE 06:57:21 10° ENE daylight
10 Aug - 08:46:31 10° WSW 09:01:30 48° NW 09:10:07 10° NNE daylight
10 Aug - 18:00:52 10° NNW 18:04:52 26° NE 18:10:44 10° E daylight
10 Aug - 20:12:07 10° WNW 20:18:19 55° SSW 20:29:18 10° SE visible
10 Aug - 22:28:05 10° WSW 22:35:50 22° SSW 22:46:33 10° SSE visible
11 Aug - 00:48:38 10° SSW 00:57:41 17° S 01:08:26 10° SE visible
11 Aug - 03:07:07 10° SSW 03:21:41 25° SSE 03:36:31 10° ESE visible
11 Aug - 05:24:14 10° SW 05:43:34 52° SSE 05:57:33 10° ENE visible
11 Aug - 07:43:33 10° WSW 08:01:32 69° NW 08:11:57 10° NE daylight
11 Aug - 10:08:43 10° WNW 10:16:36 18° NW 10:21:50 10° N daylight
11 Aug - 17:05:01 10° NNE 17:06:12 11° NE 17:07:48 10° ENE daylight
11 Aug - 19:13:43 10° WNW 19:19:01 83° SW 19:28:19 10° SE visible
11 Aug - 21:28:06 10° WSW 21:34:56 26° SSW 21:45:06 10° SSE visible
11 Aug - 23:47:33 10° SW 23:55:07 16° S 00:04:20 10° SSE visible
12 Aug - 02:06:29 10° SSW 02:18:38 21° SSE 02:32:28 10° ESE visible
12 Aug - 04:23:06 10° SW 04:41:27 42° SSE 04:56:52 10° E visible
12 Aug - 06:41:09 10° SW 07:00:56 89° SE 07:13:14 10° NE daylight
12 Aug - 09:03:52 10° W 09:16:54 31° NW 09:24:54 10° NNE daylight
12 Aug - 18:15:43 10° NW 18:20:14 54° NE 18:27:26 10° ESE visible
12 Aug - 20:28:41 10° W 20:34:39 32° SSW 20:44:08 10° SE visible
12 Aug - 22:46:42 10° SW 22:53:12 16° S 23:01:18 10° SSE night (unlit)
13 Aug - 01:06:08 10° SSW 01:15:39 17° S 01:27:15 10° SE visible
13 Aug - 03:22:24 10° SSW 03:38:55 33° SSE 03:55:03 10° E visible
13 Aug - 05:39:21 10° SW 05:59:41 71° SSE 06:13:53 10° ENE visible
13 Aug - 08:00:01 10° WSW 08:16:54 48° NW 08:27:04 10° NNE daylight
13 Aug - 10:30:33 10° NW 10:32:37 10° NNW 10:33:43 10° NNW daylight
13 Aug - 17:18:13 10° NNW 17:21:43 25° NE 17:26:26 10° E daylight
13 Aug - 19:29:45 10° W 19:34:57 44° SSW 19:43:33 10° SE visible
13 Aug - 21:46:13 10° SW 21:51:58 17° S 21:59:25 10° SSE visible
14 Aug - 00:05:59 10° SSW 00:12:59 14° S 00:21:37 10° SE visible
14 Aug - 02:22:07 10° SSW 02:36:10 26° SSE 02:51:50 10° ESE visible
14 Aug - 04:38:06 10° SW 04:57:51 56° SSE 05:13:46 10° ENE visible
14 Aug - 06:57:00 10° WSW 07:16:27 68° NW 07:28:40 10° NE daylight
14 Aug - 09:22:30 10° W 09:32:35 20° NW 09:39:12 10° N daylight
14 Aug - 16:22:19 10° NNE 16:23:03 10° NE 16:24:02 10° NE daylight
14 Aug - 18:31:14 10° WNW 18:35:49 70° SSW 18:43:13 10° SE visible
14 Aug - 20:46:09 10° WSW 20:51:21 19° SSW 20:58:27 10° SSE visible
14 Aug - 23:05:56 10° SSW 23:10:49 13° S 23:16:39 10° SSE night (unlit)
